Date String (YYYY-MM-DD hh:mm:ss) UTC,Instrument flags,Ambient pressure (hPa),Sample flow (lpm),Bypass flow (lpm),Sample temperature (°C),Ambient temperature (°C),ASC tube jacket temperature (°C),LED temperature (°C),Box temperature (°C),Sample RH (%),Span deviation,Mass concentration (μg/m³),Mass concentration (μg/m³),Mass concentration (μg/m³)
DateTimeUTC,F1_M11,P_M11,Q1_M11,Q2_M11,T1_M11,T2_M11,T3_M11,T4_M11,T5_M11,U1_M11,ZSPAN_M11,X0_M11,X2_M11,X1_M11
2022-03-27 14:00:00,,0824.4,5.00,0.00,26.4,25.3,00.0,35.3,28.1,13.0,0000.0,0013.79,0005.73,0004.65
2022-03-27 14:01:00,,0824.3,5.00,0.00,26.4,25.3,00.0,35.3,28.1,13.1,0000.0,0014.16,0005.72,0004.65
2022-03-27 14:02:00,,0824.3,5.00,0.00,26.4,25.3,00.0,35.3,28.1,13.2,0000.0,0014.75,0005.71,0004.65
2022-03-27 14:03:00,,0824.3,5.00,0.00,26.3,25.3,00.0,35.3,28.2,13.0,0000.0,0014.83,0005.68,0004.66
2022-03-27 14:04:00,,0824.3,5.00,0.00,26.3,25.3,00.0,35.3,28.1,12.9,0000.0,0014.99,0005.69,0004.65
2022-03-27 14:05:00,,0824.3,5.00,0.00,26.3,25.3,00.0,35.3,28.1,12.9,0000.0,0015.15,0005.66,0004.66
2022-03-27 14:06:00,,0824.3,5.01,0.00,26.3,25.3,00.0,35.3,28.1,12.9,0000.0,0014.77,0005.66,0004.64
2022-03-27 14:07:00,,0824.3,4.98,0.00,26.4,25.3,00.0,35.3,28.1,13.0,0000.0,0013.77,0005.67,0004.63
2022-03-27 14:08:00,,0824.3,5.00,0.00,26.4,25.3,00.0,35.3,28.1,13.1,0000.0,0013.44,0005.61,0004.61
2022-03-27 14:09:00,,0824.3,5.00,0.00,26.4,25.3,00.0,35.3,28.1,13.1,0000.0,0014.08,0005.57,0004.60
2022-03-27 14:10:00,,0824.3,5.00,0.00,26.4,25.3,00.0,35.3,28.1,13.0,0000.0,0013.74,0005.53,0004.59
2022-03-27 14:11:00,,0824.3,5.00,0.00,26.4,25.3,00.0,35.3,28.1,13.1,0000.0,0013.38,0005.52,0004.58
2022-03-27 14:12:00,,0824.3,5.01,0.00,26.3,25.3,00.0,35.3,28.1,13.0,0000.0,0012.93,0005.50,0004.57
2022-03-27 14:13:00,,0824.3,5.00,0.00,26.3,25.3,00.0,35.3,28.1,12.9,0000.0,0012.40,0005.49,0004.56
2022-03-27 14:14:00,,0824.3,4.99,0.00,26.3,25.3,00.0,35.3,28.1,12.9,0000.0,0012.44,0005.50,0004.55
2022-03-27 14:15:00,,0824.3,5.00,0.00,26.3,25.3,00.0,35.3,28.1,12.9,0000.0,0012.83,0005.49,0004.55
2022-03-27 14:16:00,,0824.3,5.00,0.00,26.3,25.3,00.0,35.3,28.1,13.0,0000.0,0013.18,0005.45,0004.55
2022-03-27 14:17:00,,0824.3,5.00,0.00,26.3,25.2,00.0,35.3,28.1,13.0,0000.0,0013.20,0005.47,0004.56
2022-03-27 14:18:00,,0824.3,5.00,0.00,26.3,25.1,00.0,35.3,28.1,13.1,0000.0,0013.18,0005.44,0004.57
2022-03-27 14:19:00,,0824.3,5.00,0.00,26.3,25.2,00.0,35.3,28.0,13.1,0000.0,0013.60,0005.45,0004.59
2022-03-27 14:20:00,,0824.3,4.99,0.00,26.3,25.2,00.0,35.3,28.0,13.2,0000.0,0013.25,0005.49,0004.60
2022-03-27 14:21:00,,0824.3,5.00,0.00,26.3,25.2,00.0,35.3,28.1,13.3,0000.0,0013.92,0005.53,0004.60
2022-03-27 14:22:00,,0824.3,5.00,0.00,26.3,25.2,00.0,35.3,28.1,13.5,0000.0,0014.99,0005.60,0004.61
2022-03-27 14:23:00,,0824.3,5.00,0.00,26.3,25.2,00.0,35.3,28.0,13.4,0000.0,0015.71,0005.64,0004.63
2022-03-27 14:24:00,,0824.2,4.99,0.00,26.3,25.2,00.0,35.3,28.0,13.2,0000.0,0015.38,0005.63,0004.63
2022-03-27 14:25:00,,0824.2,5.00,0.00,26.3,25.2,00.0,35.3,28.0,13.2,0000.0,0015.11,0005.57,0004.63
2022-03-27 14:26:00,,0824.2,5.00,0.00,26.3,25.2,00.0,35.3,28.0,13.2,0000.0,0015.82,0005.55,0004.63
2022-03-27 14:27:00,,0824.2,5.00,0.00,26.3,25.2,00.0,35.2,28.0,13.4,0000.0,0015.82,0005.56,0004.63
2022-03-27 14:28:00,,0824.3,5.00,0.00,26.3,25.2,00.0,35.3,28.0,13.5,0000.0,0016.24,0005.56,0004.63
2022-03-27 14:29:00,,0824.3,5.00,0.00,26.3,25.2,00.0,35.2,28.0,13.3,0000.0,0016.61,0005.56,0004.63
2022-03-27 14:30:00,,0824.3,5.00,0.00,26.3,25.2,00.0,35.2,28.0,13.3,0000.0,0016.32,0005.56,0004.62
2022-03-27 14:31:00,,0824.3,5.00,0.00,26.3,25.2,00.0,35.2,28.0,13.4,0000.0,0015.89,0005.48,0004.61
2022-03-27 14:32:00,,0824.2,5.01,0.00,26.3,25.2,00.0,35.2,28.0,13.3,0000.0,0015.09,0005.46,0004.62
2022-03-27 14:33:00,,0824.2,5.00,0.00,26.3,25.2,00.0,35.2,28.0,13.3,0000.0,0013.98,0005.38,0004.62
2022-03-27 14:34:00,,0824.1,5.00,0.00,26.3,25.2,00.0,35.2,28.0,13.4,0000.0,0013.43,0005.34,0004.61
2022-03-27 14:35:00,,0824.1,5.00,0.00,26.3,25.2,00.0,35.2,28.0,13.4,0000.0,0013.55,0005.35,0004.61
2022-03-27 14:36:00,,0824.1,5.00,0.00,26.2,25.2,00.0,35.2,28.0,13.4,0000.0,0013.71,0005.36,0004.62
2022-03-27 14:37:00,,0824.2,5.00,0.00,26.2,25.2,00.0,35.2,28.0,13.3,0000.0,0013.19,0005.36,0004.62
2022-03-27 14:38:00,,0824.2,5.00,0.00,26.2,25.2,00.0,35.2,28.0,13.4,0000.0,0013.89,0005.41,0004.65
2022-03-27 14:39:00,,0824.2,5.00,0.00,26.2,25.2,00.0,35.2,28.0,13.5,0000.0,0013.38,0005.42,0004.67
2022-03-27 14:40:00,,0824.2,5.00,0.00,26.3,25.2,00.0,35.2,28.0,13.3,0000.0,0013.13,0005.49,0004.70
2022-03-27 14:41:00,,0824.2,5.00,0.00,26.3,25.2,00.0,35.2,28.0,13.1,0000.0,0013.09,0005.52,0004.72
2022-03-27 14:42:00,,0824.2,5.00,0.00,26.3,25.2,00.0,35.2,28.0,13.1,0000.0,0013.26,0005.57,0004.74
2022-03-27 14:43:00,,0824.2,5.00,0.00,26.3,25.2,00.0,35.2,28.0,13.2,0000.0,0013.86,0005.64,0004.75
2022-03-27 14:44:00,,0824.1,5.00,0.00,26.3,25.2,00.0,35.2,28.0,13.2,0000.0,0013.93,0005.70,0004.77
2022-03-27 14:45:00,,0824.1,5.00,0.00,26.3,25.2,00.0,35.2,28.0,13.4,0000.0,0013.91,0005.75,0004.79
2022-03-27 14:46:00,,0824.1,5.00,0.00,26.3,25.2,00.0,35.2,28.0,13.5,0000.0,0014.35,0005.82,0004.81
2022-03-27 14:47:00,,0824.2,5.00,0.00,26.2,25.2,00.0,35.2,28.0,13.5,0000.0,0014.41,0005.89,0004.82
2022-03-27 14:48:00,,0824.1,4.99,0.00,26.2,25.1,00.0,35.2,28.0,13.5,0000.0,0014.46,0005.92,0004.85
2022-03-27 14:49:00,,0824.2,5.00,0.00,26.2,25.1,00.0,35.2,28.0,13.5,0000.0,0014.32,0005.92,0004.84
2022-03-27 14:50:00,,0824.2,5.00,0.00,26.2,25.1,00.0,35.2,28.0,13.6,0000.0,0014.58,0005.93,0004.85
2022-03-27 14:51:00,,0824.2,5.00,0.00,26.2,25.1,00.0,35.2,28.0,13.7,0000.0,0014.67,0005.96,0004.84
2022-03-27 14:52:00,,0824.2,5.00,0.00,26.2,25.1,00.0,35.2,27.9,13.8,0000.0,0014.70,0005.95,0004.84
2022-03-27 14:53:00,,0824.1,5.00,0.00,26.2,25.1,00.0,35.2,28.0,13.8,0000.0,0014.88,0005.98,0004.84
2022-03-27 14:54:00,,0824.2,5.02,0.00,26.2,25.1,00.0,35.2,27.9,13.7,0000.0,0014.33,0005.95,0004.86
2022-03-27 14:55:00,,0824.2,5.01,0.00,26.2,25.1,00.0,35.2,27.9,13.7,0000.0,0014.79,0005.95,0004.86
2022-03-27 14:56:00,,0824.2,5.00,0.00,26.2,25.1,00.0,35.2,27.9,13.8,0000.0,0015.61,0005.94,0004.87
2022-03-27 14:57:00,,0824.2,5.00,0.00,26.2,25.1,00.0,35.2,27.9,13.7,0000.0,0015.27,0005.95,0004.88
2022-03-27 14:58:00,,0824.2,4.99,0.00,26.2,25.1,00.0,35.1,27.9,13.7,0000.0,0015.09,0005.94,0004.88
2022-03-27 14:59:00,,0824.1,4.99,0.00,26.2,25.1,00.0,35.1,27.9,13.7,0000.0,0014.74,0005.97,0004.89
